Location: Dampvalley
(47.9094°N, 6.1967°E)
Time: 17:39:51
(UTC+00:00)

Meteor 1-26 Rocket - Visible Passes

Search period start: 22 June 2021 00:00
Search period end: 02 July 2021 00:00
Orbit: 807 x 928 km, 81.3° (Epoch: 21 June)

Date Brightness Start Highest point End Pass type
(mag) Time Alt. Az. Time Alt. Az. Time Alt. Az.
22 Jun 4.4 01:35:37 10° N 01:41:30 83° ENE 01:47:31 10° SSE visible
22 Jun 6.7 23:46:51 10° NNE 23:50:23 16° ENE 23:53:58 10° E visible
23 Jun 4.4 01:28:41 10° N 01:34:36 84° ENE 01:40:38 10° SSE visible
23 Jun 6.7 23:39:54 10° NNE 23:43:30 16° ENE 23:47:09 10° E visible
24 Jun 4.4 01:21:46 10° N 01:27:43 85° E 01:33:28 11° SSE visible
24 Jun 6.7 23:32:56 10° NNE 23:36:37 17° ENE 23:40:19 10° E visible
25 Jun 4.4 01:14:52 10° N 01:20:49 86° E 01:26:10 14° SSE visible
25 Jun 6.6 23:25:59 10° NNE 23:29:44 17° ENE 23:33:30 10° E visible
26 Jun 4.4 01:07:56 10° N 01:13:55 88° E 01:18:53 16° S visible
26 Jun 6.0 02:52:57 10° NW 02:56:23 16° W 02:59:52 10° WSW visible
26 Jun 6.6 23:19:02 10° NNE 23:22:51 17° ENE 23:26:41 10° E visible
27 Jun 4.4 01:01:02 10° NNW 01:07:01 89° ENE 01:11:40 18° S visible
27 Jun 6.1 02:46:05 10° NW 02:49:29 16° W 02:52:54 10° WSW visible
27 Jun 6.6 23:12:05 10° NNE 23:15:58 17° ENE 23:19:51 10° E visible
28 Jun 4.4 00:54:08 10° NNW 01:00:07 90° ENE 01:04:28 20° S visible
28 Jun 6.1 02:39:12 10° NW 02:42:34 16° W 02:45:56 10° WSW visible
28 Jun 6.5 23:05:09 10° NNE 23:09:04 18° ENE 23:13:01 10° E visible
29 Jun 4.3 00:47:13 10° NNW 00:53:13 89° WSW 00:57:18 22° S visible
29 Jun 6.1 02:32:20 10° NW 02:35:39 15° W 02:38:58 10° WSW visible
29 Jun 6.5 22:58:12 10° NNE 23:02:11 18° ENE 23:06:12 10° ESE visible
30 Jun 4.3 00:40:19 10° NNW 00:46:19 88° W 00:50:10 24° S visible
30 Jun 6.2 02:25:29 10° NW 02:28:44 15° W 02:31:59 10° WSW visible
30 Jun 6.5 22:51:16 10° NNE 22:55:18 18° ENE 22:59:21 10° ESE visible
01 Jul 4.3 00:33:24 10° NNW 00:39:25 87° W 00:43:04 26° S visible
01 Jul 6.2 02:18:37 10° NW 02:21:48 15° W 02:25:02 10° WSW visible
01 Jul 6.4 22:44:19 10° NNE 22:48:25 19° ENE 22:52:31 10° ESE visible
